Location: Newark
(12.4436°N, 0.6167°W)
Time: 19:08:03
(UTC+00:00)

Transit 2A - Pass Details

Date: 08 December 2019
Orbit: 601 x 958 km, 66.7° (Epoch: 28 January)

Event Time Altitude Azimuth Distance (km) Brightness Sun altitude
Rises 06:02:57 0° 193° (SSW) 3,378 9.5 -2.8°
Reaches altitude 10° 06:05:32 10° 189° (S) 2,388 8.8 -2.2°
Maximum altitude 06:10:54 59° 110° (ESE) 860 6.8 -1.0°
Drops below altitude 10° 06:15:44 10° 31° (NNE) 2,154 8.5 0.1°
Sets 06:17:58 0° 28° (NNE) 3,021 9.2 0.6°
